Weather in Ulemets

Russia / Kaluga Oblast     53°32′34″N   34°38′45″E
temp.,
°C
wind,
m/s
gust,
m/s
humid.,
%
clouds,
%
prec.,
mm/h
press.,
hPa
HPBL,
m
13 june, sun
sun1300:00+13ssw22920 0.0 100811
03:00+12ssw22955 0.0 100718
06:00+13ssw23945 0.0 100796
09:00+18s34815 0.3 1006379
12:00+20s467780 2.3 1007783
15:00+21s4671100 4.2 10061108
18:00+21s357916 1.3 1006391
21:00+16s349297 3.8 100864
14 june, mon
mon1400:00+15sse2495100 0.1 100868
03:00+14sse229599 0.1 101033
06:00+15sse23956 0.0 1012109
09:00+19s237949 0.0 1013451
12:00+23ssw12597 0.0 10141222
15:00+25w015346 0.0 10141582
18:00+23ssw237367 0.4 1014136
21:00+19w228517 1.2 101416
15 june, tue
tue1500:00+16nw22913 0.0 101516
03:00+15nnw22935 0.0 101414
06:00+16nnw229212 0.0 101558
09:00+21nw227679 0.0 1014438
12:00+25nw126059 0.3 10131175
15:00+25sse115953 2.4 1012866
18:00+25w236742 0.1 1010334
21:00+19nnw368771 1.4 101199
16 june, wed
wed1600:00+16nnw369527 0.1 1011117
03:00+15n369639 0.1 1011109
06:00+15nnw38957 0.0 1012211
09:00+20n35753 0.0 1013525
12:00+23n555814 0.0 10131408
15:00+24nne455942 0.0 10141496
18:00+22nne586740 0.0 1015619
21:00+17nne410780 0.0 1017292
17 june, thu
thu1700:00+14nne311840 0.0 1019228
03:00+13ne49830 0.0 1020189
06:00+13ne411820 0.0 1022279
09:00+18ne58610 0.0 1023604
12:00+22ene57480 0.0 10241522
15:00+23ene56510 0.0 10231646
18:00+21ene47610 0.0 1024736
21:00+15e23830 0.0 102529